Vertical_Velocity
-1 2 1 -3 -6 4 -3 3 3 -11 -7 -2 -2 -0 -1 -1 -1 -2 -2 -2 -1 -1 -0 -2 -1 -0 -2 -2 -3 -5 0 -1 -4 -3 -1 -1 3 -1 1 -0 -6 1 1 -7
4 -4 -3 1 4 -5 -3 5 2 17 -12 -2 -3 1 2 -5 -1 -0 -2 -3 -0 1 -0 -2 -2 1 -4 -2 -2 -2 -3 2 -7 -15 -1 2 -1 -2 2 2 2 -1 -1 -3
2 -6 4 -4 -3 6 -6 3 1 13 -4 -5 -3 0 0 -3 -2 -1 -1 -2 -1 -0 -2 -0 -0 -1 -2 -0 -2 -2 1 1 3 -2 -4 9 -2 1 -0 1 1 -0 -4 -11
5 -2 -0 6 -5 6 -14 6 1 2 -6 1 -3 -1 1 -2 -4 -1 -1 -1 -1 -0 -1 -3 -2 -0 1 -1 -2 -4 -2 -3 1 4 -2 3 0 0 -0 -0 1 0 -2 -3
6 1 -4 1 5 -2 -3 0 3 -2 -3 0 -1 -1 -0 -1 0 -2 -0 -1 -1 -1 0 2 -2 0 2 0 2 -2 -2 -4 -4 -4 -2 5 -4 -2 -1 -0 -0 -2 -1 -3
-3 6 3 -2 7 -7 -5 3 4 -2 2 -1 -1 -1 0 -1 1 -2 -2 -1 -1 -1 1 0 1 1 2 -1 -2 -2 -2 1 -2 -7 -1 -2 -2 -3 -0 -1 1 1 -3 -0
-3 1 3 -0 4 -0 -2 -0 2 -1 -1 -0 -0 -1 0 -2 1 -2 -2 -1 -1 -1 -1 -0 -0 -0 0 -2 2 1 -2 2 1 -6 -6 -8 -4 -1 -1 -4 1 1 -2 -2
0 -7 -3 3 5 -1 1 -1 0 -1 -0 0 -0 -2 -0 -1 1 -1 -2 -2 0 -1 -1 -3 -3 -3 -3 -2 1 1 -0 1 -1 -1 0 -10 -8 -4 -4 -0 -18 1 2 -2
1 -4 -1 -1 3 1 1 -1 0 -0 2 0 -1 -1 1 -1 0 -1 -0 -1 0 0 -1 -1 -1 -3 -2 -1 -0 1 2 1 3 3 -0 -2 -3 -1 -1 -1 -10 -7 0 0
1 -4 -1 3 2 -1 -0 -1 -0 -1 1 2 -1 -1 -1 0 1 1 -1 -1 -3 1 -0 1 -1 -2 -4 -2 -2 -0 -0 -0 -3 4 -4 -10 2 -0 -2 -1 -10 -5 -4 -1
-1 -3 0 1 1 -1 0 -0 0 -2 2 1 -0 -1 -0 -0 1 1 3 -2 -1 -3 -1 2 0 0 -0 -2 1 -2 2 -1 -1 1 1 -12 3 2 -3 5 -2 -1 -3 -1
0 -2 1 2 -0 2 -1 -1 0 0 1 1 -1 1 -1 -1 0 -1 1 1 -1 -1 -4 1 0 -1 1 3 -6 -2 -5 -0 -1 -5 -17 5 -1 4 2 -0 2 -0 -4 -3
1 1 1 -0 1 0 -2 -2 0 -0 1 -0 -2 -1 0 -1 -0 2 -2 1 2 1 1 -0 0 -2 -0 0 -2 -0 -4 2 -6 4 11 10 13 3 2 1 1 1 -0 -4
2 1 2 -2 4 1 -3 -3 0 2 2 -1 -2 0 0 -2 -1 -0 -0 2 3 3 2 1 3 4 2 -2 -2 -3 8 4 6 -11 2 -4 3 -2 4 0 -2 1 1 -1
3 2 2 1 2 0 -3 -3 -1 2 0 -1 -1 1 -0 -1 -2 -0 1 2 2 3 1 1 1 -1 0 0 -1 -5 -1 1 3 -7 1 -1 -1 -2 0 0 0 1 -0 -2
1 3 1 2 -2 -0 -3 -2 -0 1 1 -1 -2 -1 -2 -2 -2 -1 0 1 3 4 4 1 -2 2 1 -2 -11 9 -0 -1 -0 -4 -1 -0 1 -2 -3 -0 -0 1 1 -4
-0 2 2 1 -1 2 -2 -2 -1 -0 1 -1 -1 -2 -2 0 -2 -1 -2 1 3 5 2 -1 -2 2 -1 -4 -10 -1 -1 -1 -1 0 -1 2 3 -3 -1 2 -0 -1 1 0
1 0 2 0 0 4 -0 -1 0 0 1 1 0 -3 -7 -1 -1 -1 1 -2 4 -2 1 -1 0 -1 0 -9 -1 -3 -3 -2 -2 0 -1 -2 -2 1 -1 -2 -0 -2 -0 -2
4 -2 0 -1 2 2 1 -2 1 1 1 0 -1 2 -2 -5 -0 1 -4 -2 -4 -1 -2 -1 -3 0 -9 -2 -6 -4 -2 -1 -3 -2 -2 -3 -0 1 -0 1 -1 -1 0 -3
1 -1 1 -4 4 1 3 -11 -3 -0 -0 1 -1 -1 -3 5 3 -5 0 1 -3 -1 -2 -1 -3 -13 3 1 -3 -1 -0 1 -0 -1 -0 -2 2 -0 0 -1 -2 -1 -2 -1
-0 -3 3 1 2 1 0 -2 -1 1 0 -1 -2 -1 0 -3 -1 2 0 -2 -1 -1 -1 -2 -2 -5 -1 -2 -2 -3 -1 -1 -1 -1 -0 1 -0 -0 1 0 -1 -1 -1 -1
4 1 -1 -0 2 -5 4 -0 0 1 -2 -3 -2 -4 0 -4 -1 2 -0 0 -1 0 0 -1 -4 0 -2 -1 2 -2 -2 -0 -1 -0 0 1 0 -1 0 0 1 0 -1 -2
3 3 -1 0 2 -1 -2 1 -1 -3 -2 -0 -0 -2 2 -4 -1 2 2 1 0 -1 -0 -4 -1 -4 -0 1 1 2 -1 -1 0 0 -0 1 -0 1 -1 1 0 1 1 -1
3 2 0 -8 -3 3 -3 6 1 1 -1 1 3 -0 4 1 2 1 3 1 -1 -1 -3 -3 2 3 0 1 2 2 1 0 1 1 -2 2 0 0 2 -0 0 -1 -0 -0
3 -2 -8 -2 -7 6 3 7 3 2 1 2 -0 -1 1 -1 1 -1 1 -1 -1 -4 -3 2 4 3 3 4 -0 -1 -1 1 2 -1 -1 0 2 3 -0 1 -0 1 -0 -1
0 -0 -4 -1 -1 8 2 1 2 4 1 -2 -2 0 1 -3 -2 -1 -2 -1 -4 0 3 3 1 4 2 -2 0 1 1 0 3 -2 -1 2 1 1 -2 1 -0 -0 1 -1
-7 -11 1 -10 3 0 6 3 4 4 2 0 1 1 -3 1 -1 -5 -6 -13 5 5 -3 3 7 2 -1 -1 1 2 1 2 -0 -1 2 1 0 -1 2 1 0 -1 -0 1
Height
3145 3140 3137 3133 3131 3126 3123 3119 3115 3111 3110 3110 3103 3097 3093 3092 3087 3084 3081 3077 3073 3069 3065 3059 3056 3052 3047 3042 3037 3032 3030 3025 3017 3013 3010 3009 3007 3004 3001 2999 2999 2996 2995 2988
3141 3136 3133 3130 3128 3124 3123 3117 3112 3108 3105 3106 3103 3098 3094 3091 3086 3083 3079 3076 3073 3069 3065 3061 3056 3053 3048 3043 3039 3034 3031 3026 3019 3012 3012 3009 3007 3005 3003 3000 2997 2996 2997 2989
3138 3133 3129 3126 3124 3121 3120 3115 3115 3107 3103 3101 3102 3098 3093 3090 3086 3082 3078 3076 3071 3067 3064 3061 3057 3052 3047 3043 3039 3035 3030 3027 3025 3022 3016 3012 3007 3005 3003 3001 2999 2996 2992 2986
3134 3129 3126 3123 3121 3117 3118 3113 3108 3107 3104 3100 3099 3097 3093 3089 3085 3081 3077 3074 3070 3067 3062 3058 3054 3050 3047 3043 3038 3034 3030 3025 3020 3015 3012 3010 3006 3003 3001 3000 2998 2995 2991 2986
3131 3127 3123 3119 3115 3114 3112 3111 3107 3104 3101 3099 3096 3095 3092 3088 3084 3081 3076 3072 3068 3064 3060 3057 3051 3048 3045 3042 3038 3034 3029 3024 3017 3012 3010 3007 3001 2999 2999 2998 2995 2992 2989 2985
3129 3124 3119 3117 3114 3111 3109 3107 3104 3102 3100 3097 3095 3093 3089 3087 3083 3080 3076 3072 3067 3062 3058 3053 3048 3044 3041 3039 3035 3031 3027 3022 3017 3009 3006 3000 3000 2998 2997 2995 2993 2991 2988 2985
3126 3122 3117 3114 3110 3107 3106 3103 3101 3099 3096 3094 3093 3090 3087 3085 3082 3078 3074 3070 3065 3061 3055 3050 3044 3040 3036 3035 3033 3029 3026 3023 3019 3011 3006 3006 2998 2996 2994 2992 2990 2988 2985 2982
3122 3119 3115 3111 3107 3103 3101 3100 3098 3096 3093 3091 3090 3087 3084 3083 3079 3076 3072 3068 3064 3058 3052 3046 3039 3035 3033 3030 3029 3026 3024 3022 3019 3015 3010 3001 2994 2993 2993 2989 2984 2982 2981 2980
3120 3116 3113 3108 3104 3100 3097 3096 3094 3092 3091 3088 3086 3084 3082 3080 3077 3073 3070 3065 3060 3055 3049 3045 3041 3037 3032 3028 3025 3023 3021 3020 3019 3014 3012 3004 2992 2990 2989 2986 2980 2980 2980 2977
3118 3114 3110 3106 3102 3097 3093 3092 3090 3088 3087 3085 3083 3081 3079 3077 3074 3071 3066 3062 3058 3054 3048 3043 3039 3036 3033 3027 3023 3019 3018 3015 3013 3010 3008 2996 2991 2988 2986 2985 2984 2976 2974 2972
3116 3112 3108 3105 3100 3093 3089 3088 3086 3086 3083 3082 3080 3078 3076 3074 3071 3068 3065 3061 3054 3050 3047 3042 3040 3033 3031 3025 3021 3018 3016 3013 3008 3005 3002 2993 2988 2985 2984 2980 2975 2973 2970 2966
3113 3110 3107 3103 3097 3090 3086 3085 3084 3082 3081 3080 3077 3074 3073 3071 3068 3065 3062 3060 3055 3052 3048 3043 3037 3033 3028 3021 3018 3014 3011 3010 3007 3005 2995 2989 2986 2981 2978 2973 2970 2968 2965 2962
3110 3107 3104 3100 3094 3090 3085 3083 3082 3079 3077 3076 3074 3071 3070 3068 3065 3062 3059 3054 3050 3046 3042 3038 3034 3030 3022 3018 3011 3008 3005 3002 2999 2994 2990 2986 2982 2976 2972 2967 2964 2962 2960 2958
3106 3104 3101 3096 3092 3089 3085 3082 3079 3076 3074 3073 3072 3068 3066 3064 3062 3059 3054 3050 3044 3041 3037 3032 3026 3023 3017 3011 3009 3003 3002 2997 2993 2987 2983 2979 2977 2971 2967 2962 2959 2957 2955 2953
3102 3100 3098 3093 3090 3088 3084 3080 3077 3074 3074 3070 3067 3065 3063 3062 3060 3055 3050 3044 3039 3034 3029 3024 3020 3014 3011 3005 3001 2996 2996 2993 2990 2982 2978 2974 2971 2966 2961 2956 2953 2952 2949 2947
3098 3096 3094 3090 3088 3085 3084 3079 3077 3073 3070 3066 3063 3062 3060 3058 3054 3050 3045 3038 3032 3028 3021 3016 3010 3009 3008 3002 2995 2995 2991 2989 2984 2978 2972 2968 2964 2960 2955 2950 2947 2945 2943 2940
3093 3092 3090 3087 3085 3083 3082 3079 3075 3070 3067 3064 3060 3058 3056 3053 3049 3045 3038 3031 3025 3019 3012 3005 3005 3003 3004 2995 2991 2990 2987 2983 2978 2972 2966 2962 2959 2954 2950 2945 2942 2939 2937 2934
3087 3087 3086 3084 3082 3079 3079 3074 3070 3067 3064 3061 3058 3056 3053 3049 3044 3038 3032 3025 3016 3008 3004 3001 2999 2997 2996 2990 2988 2985 2982 2977 2972 2966 2961 2956 2952 2948 2944 2939 2935 2933 2931 2928
3082 3082 3081 3079 3078 3075 3073 3070 3066 3063 3064 3058 3056 3054 3049 3043 3038 3031 3023 3016 3009 3002 2999 2997 2996 2990 2987 2985 2983 2980 2975 2970 2966 2961 2955 2950 2946 2942 2938 2934 2929 2926 2924 2920
3078 3078 3078 3074 3073 3070 3068 3065 3061 3057 3055 3053 3053 3051 3047 3042 3033 3024 3020 3009 3005 2998 2996 2993 2987 2980 2982 2981 2978 2974 2970 2965 2960 2955 2950 2945 2941 2937 2932 2927 2923 2919 2916 2913
3072 3072 3072 3071 3068 3065 3062 3059 3056 3053 3052 3050 3049 3046 3041 3035 3030 3022 3019 3010 3003 2997 2995 2992 2983 2977 2977 2975 2971 2967 2963 2959 2954 2949 2944 2940 2936 2931 2927 2922 2917 2913 2910 2907
3067 3067 3066 3065 3062 3059 3057 3052 3052 3050 3049 3047 3044 3041 3036 3030 3023 3016 3010 3006 3001 2994 2991 2988 2978 2975 2973 2970 2966 2961 2956 2952 2947 2943 2939 2934 2930 2925 2920 2916 2912 2907 2904 2902
3062 3062 3061 3061 3059 3054 3050 3048 3047 3046 3044 3042 3038 3035 3031 3023 3020 3012 3007 3001 2996 2993 2987 2980 2975 2972 2968 2964 2959 2954 2949 2945 2941 2936 2933 2928 2924 2920 2915 2910 2906 2902 2899 2897
3056 3055 3054 3053 3049 3045 3045 3045 3043 3042 3038 3036 3032 3029 3026 3019 3013 3008 3002 2998 2994 2988 2981 2974 2971 2968 2963 2958 2953 2948 2943 2939 2934 2929 2925 2921 2918 2913 2909 2905 2900 2896 2894 2892
3048 3048 3043 3037 3039 3040 3041 3040 3038 3036 3033 3030 3027 3024 3019 3014 3009 3005 3000 2994 2986 2979 2973 2970 2966 2961 2956 2950 2945 2940 2935 2931 2927 2922 2917 2914 2911 2907 2903 2899 2895 2891 2888 2887
3036 3031 3029 3030 3033 3034 3035 3034 3033 3030 3027 3024 3022 3018 3012 3007 3004 2999 2995 2988 2979 2975 2970 2966 2960 2955 2949 2942 2936 2932 2928 2924 2919 2914 2910 2907 2904 2900 2897 2892 2889 2885 2883 2881
3016 3014 3019 3023 3027 3027 3028 3027 3026 3023 3021 3018 3016 3014 3009 3003 2996 2989 2983 2977 2974 2969 2963 2958 2953 2947 2941 2935 2930 2925 2921 2916 2911 2907 2903 2900 2896 2893 2889 2886 2882 2879 2878 2876